Location: Newark
(47.5833°N, 8.1500°E)
Time: 05:31:43
(UTC+00:00)

Tiros 1 despin weight - Pass Details

Date: 27 October 2020
Orbit: 593 x 642 km, 48.2° (Epoch: 30 November)

Event Time Altitude Azimuth Distance (km) Brightness Sun altitude
Exits shadow 03:22:34 50° 83° (E) 764 ? -27.7°
Drops below altitude 10° 03:25:51 10° 91° (E) 1,924 ? -27.2°
Sets 03:28:08 0° 92° (E) 2,826 ? -26.8°
